Location: Praha
(50.0830°N, 14.4670°E)
Time: 16:37:42
(UTC+02:00)

ISS - Pass Details

Date: 17 July 2021
Orbit: 419 x 421 km, 51.6° (Epoch: 01 August)

Event Time Altitude Azimuth Distance (km) Brightness Sun altitude
Rises 22:58:49 0° 259° (W) 2,365 0.3 -13.3°
Reaches altitude 10° 23:00:55 10° 261° (W) 1,502 -0.7 -13.5°
Maximum altitude 23:04:18 78° 348° (NNW) 435 -3.6 -13.8°
Drops below altitude 10° 23:07:41 10° 75° (ENE) 1,504 -1.1 -14.0°
Sets 23:09:47 0° 77° (ENE) 2,369 -0.1 -14.2°
